Chongqing, China

10:21 AM CST on November 20, 2019 (GMT +0800)
Jiangbei

Weather History for ZUCK - September, 2019

Change the Weather History Date:

Friday, September 27, 2019

  Actual Average (WUND) Record (WUND)
Temperature  
Mean Temperature 76 °F -  
Max Temperature 85 °F - - (-1)
Min Temperature 66 °F - - (-1)
Cooling Degree Days 10    
Growing Degree Days 26 (Base 50)    
Moisture  
Dew Point 63 °F    
Average Humidity 67    
Maximum Humidity 88    
Minimum Humidity 32    
Precipitation  
Precipitation 0.00 in - - ()
Sea Level Pressure  
Sea Level Pressure 30.13 in    
Wind  
Wind Speed 3 mph ()    
Max Wind Speed 9 mph    
Max Gust Speed -    
Visibility 4.5 miles    
Events      
Averages and records for this station are not official NWS values.
T = Trace of Precipitation, MM = Missing Value Source: Averaged Metar Reports

Daily Weather History Graph

Daily Weather History Graph

Search for Another Location

Airport or City:

Astronomy

Sep. 27, 2019 Rise Set
Actual Time 6:44 AM CST 6:44 PM CST
Civil Twilight 6:20 AM CST 7:08 PM CST
Nautical Twilight 5:52 AM CST 7:36 PM CST
Astronomical Twilight 5:24 AM CST 8:03 PM CST
Moon 4:40 AM CST (9/27) 6:02 PM CST (9/27)
Length of Visible Light 12h 48m
Length of Day
12h 00m
Waning Crescent, 4% of the Moon is Illuminated
Sep 27
Waning Crescent
Sep 29
New
Oct 6
First Quarter
Oct 14
Full
Oct 21
Last Quarter

Hourly Weather History & Observations

Time (CST) Temp. Heat Index Dew Point Humidity Pressure Visibility Wind Dir Wind Speed Gust Speed Precip Events Conditions
12:00 AM 69.8 °F - 62.6 °F 78% 30.18 in - North 6.7 mph - N/A   Clear
1:00 AM 68.0 °F - 62.6 °F 83% 30.18 in - North 4.5 mph - N/A   Clear
2:00 AM 69 °F - 64 °F 79% 30.13 in - NW 2.2 mph - -   Mist
2:00 AM 68.0 °F - 62.6 °F 83% 30.18 in - Calm Calm - N/A   Clear
3:00 AM 68.0 °F - 62.6 °F 83% 30.15 in - Calm Calm - N/A   Clear
4:00 AM 68.0 °F - 62.6 °F 83% 30.15 in 5.0 mi Calm Calm - N/A   Unknown
5:00 AM 68 °F - 64 °F 84% 30.11 in 3 mi NW 2.2 mph - -   Mist
5:00 AM 68.0 °F - 62.6 °F 83% 30.15 in 5.0 mi Calm Calm - N/A   Unknown
6:00 AM 66.2 °F - 62.6 °F 88% 30.15 in 4.3 mi Calm Calm - N/A   Unknown
7:00 AM 66.2 °F - 62.6 °F 88% 30.18 in 2.8 mi Calm Calm - N/A   Mist
8:00 AM 69 °F - 64 °F 79% 30.16 in 3 mi NW 2.2 mph - -   Mist
8:00 AM 68.0 °F - 64.4 °F 88% 30.21 in 2.8 mi NE 2.2 mph - N/A   Mist
9:00 AM 71.6 °F - 64.4 °F 78% 30.21 in 2.8 mi East 2.2 mph - N/A   Mist
10:00 AM 75.2 °F - 64.4 °F 69% 30.21 in - Calm Calm - N/A   Mist
11:00 AM 79 °F - 66 °F 55% 30.16 in 2 mi East 2.2 mph - -   Mist
11:00 AM 77.0 °F - 66.2 °F 69% 30.21 in 3.1 mi Variable 2.2 mph - N/A   Haze
1:00 PM 82.4 °F 83.4 °F 62.6 °F 51% 30.15 in 6.2 mi East 6.7 mph - N/A   Partly Cloudy
2:00 PM 84 °F - 63 °F 39% 30.06 in - ENE 2.2 mph - -   Mist
2:00 PM 82.4 °F 83.4 °F 62.6 °F 51% 30.12 in 6.2 mi South 2.2 mph - N/A   Scattered Clouds
3:00 PM 84.2 °F 85.6 °F 64.4 °F 51% 30.09 in 6.2 mi Variable 4.5 mph - N/A   Scattered Clouds
4:00 PM 84.2 °F 85.0 °F 62.6 °F 48% 30.06 in 6.2 mi WNW 4.5 mph - N/A   Scattered Clouds
5:00 PM 85 °F - 60 °F 32% 29.99 in 7 mi NNW 4.5 mph - -  
5:00 PM 84.2 °F 84.4 °F 60.8 °F 45% 30.06 in 6.2 mi WNW 4.5 mph - N/A   Partly Cloudy
6:00 PM 82.4 °F 82.5 °F 59.0 °F 45% 30.06 in - NW 4.5 mph - N/A   Clear
7:00 PM 78.8 °F - 62.6 °F 57% 30.06 in - NNW 8.9 mph - N/A   Clear
8:00 PM 79 °F - 63 °F 48% 30.02 in 5 mi NW 4.5 mph - -  
8:00 PM 77.0 °F - 64.4 °F 65% 30.09 in - NNW 6.7 mph - N/A   Clear
10:00 PM 73.4 °F - 62.6 °F 69% 30.12 in - North 6.7 mph - N/A   Clear
11:00 PM 75 °F - 64 °F 60% 30.06 in 4 mi WNW 2.2 mph - -  
11:00 PM 71.6 °F - 64.4 °F 78% 30.12 in - North 6.7 mph - N/A   Clear